Regional Weather Roundup
Issued by NWS Northern Indiana

Home | Current Version | Previous Version | Text Only | Print | Product List | Glossary Off
Versions: 1 2 3 4 5 6 7 8 9 10 11 12 13 14 15 16 17 18 19 20 21 22 23 24 25 26 27 28 29 30 31 32 33 34 35 36 37 38 39 40 41 42 43 44 45 46 47 48 49 50

000
ASUS43 KIWX 291800
RWRIWX

KIWX WEATHER ROUNDUP
NATIONAL WEATHER SERVICE NORTHERN INDIANA
200 PM EDT WED JUL 29 2015

NOTE: "FAIR" INDICATES FEW OR NO CLOUDS BELOW 12,000 FEET WITH NO
SIGNIFICANT WEATHER AND/OR OBSTRUCTIONS TO VISIBILITY.

* THESE STATIONS ARE NOT UNDER NWS QUALITY CONTROL. THEY ALSO MAY NOT
  REPORT WEATHER SUCH AS PRECIPITATION OR FOG.

INZ001>027-291900-
NORTHERN INDIANA

CITY           SKY/WX    TMP DP  RH WIND       PRES   REMARKS
GARY*          PTSUNNY   84  75  74 NE7       29.99S
VALPARAISO     MOSUNNY   83  74  74 N7        29.99S
KNOX*          PTSUNNY   82  72  69 NW15      29.97S
SOUTH BEND     CLOUDY    81  73  76 NW14      29.99R
6HR MIN TEMP:  78; 6HR MAX TEMP:  85;

ELKHART*       PTSUNNY   84  72  65 NW8       29.97S
GOSHEN         CLOUDY    84  75  74 W9        29.96S
6HR MIN TEMP:  77; 6HR MAX TEMP:  84;

MONTICELLO*    PTSUNNY   83  76  80 W8        29.98S
6HR MIN TEMP:  74; 6HR MAX TEMP:  83;

WARSAW*        CLOUDY    84  73  70 W10       29.97S
ANGOLA*        PTSUNNY   90  75  62 W8        29.95S HX 100
FORT WAYNE     PTSUNNY   87  76  69 W8        29.95F HX  97
6HR MIN TEMP:  75; 6HR MAX TEMP:  87; 6HR PCP: TRACE;


$$
INZ028>050-291900-
CENTRAL INDIANA

CITY           SKY/WX    TMP DP  RH WIND       PRES   REMARKS
LAFAYETTE      CLOUDY    83  75  77 W5        29.98S
6HR MIN TEMP:  73; 6HR MAX TEMP:  84;

KOKOMO*        PTSUNNY   88  73  62 NW7       29.98S HX  96
6HR MIN TEMP:  75; 6HR MAX TEMP:  88;

MUNCIE*        PTSUNNY   87  75  67 W10       29.97S HX  96
6HR MIN TEMP:  77; 6HR MAX TEMP:  88;

INDIANAPOLIS   MOSUNNY   90  72  55 W7        29.98R HX  97
6HR MIN TEMP:  77; 6HR MAX TEMP:  90;


$$
MIZ043>046-050>051-056>058-064>065-071>073-077>080-291900-
SOUTHWEST LOWER MICHIGAN

CITY           SKY/WX    TMP DP  RH WIND       PRES   REMARKS
BATTLE CREEK   CLOUDY    84  74  71 W9        29.96R
6HR MIN TEMP:  74; 6HR MAX TEMP:  85;

BENTON HARBOR  PTSUNNY   81  71  71 NW9G18    29.98R
6HR MIN TEMP:  77; 6HR MAX TEMP:  81;

COLDWATER*     CLOUDY    84  72  68 W10G16    29.95S
6HR MIN TEMP:  72; 6HR MAX TEMP:  86;

HILLSDALE*     PTSUNNY   88  74  65 SW13      29.94F HX  96
6HR MIN TEMP:  73; 6HR MAX TEMP:  89;

HOLLAND        PTSUNNY   83  67  58 W9        29.96R
6HR MIN TEMP:  75; 6HR MAX TEMP:  84;

GRAND RAPIDS   CLOUDY    82  72  71 W7        29.93F
6HR MIN TEMP:  75; 6HR MAX TEMP:  83;

KALAMAZOO      CLOUDY    82  71  69 NW10      29.96R
6HR MIN TEMP:  75; 6HR MAX TEMP:  85;

STURGIS*       CLOUDY    81  75  83 W8        29.96S
THREE RIVERS*  PTSUNNY   84  72  67 NW9       29.96S
6HR MIN TEMP:  74; 6HR MAX TEMP:  85;


$$
OHZ001>008-015>018-024>025-291900-
NORTHWEST OHIO

CITY           SKY/WX    TMP DP  RH WIND       PRES   REMARKS
DEFIANCE       PTSUNNY   88  72  58 W6        29.93F
6HR MIN TEMP:  74; 6HR MAX TEMP:  90;

FINDLAY        PTSUNNY   90  72  55 VRB5      29.94S HX  97
6HR MIN TEMP:  74; 6HR MAX TEMP:  90;

TOLEDO EXPRESS MOSUNNY   89  73  59 MISG      29.92F HX  97
6HR MIN TEMP:  71; 6HR MAX TEMP:  91;

TOLEDO METCALF PTSUNNY   89  71  55 S10G17    29.93F HX  95
6HR MIN TEMP:  73; 6HR MAX TEMP:  90;

LIMA           PTSUNNY   88  72  58 SW8       29.96S
6HR MIN TEMP:  74; 6HR MAX TEMP:  89;


$$
AND FOR LAKE MICHIGAN COASTAL AND OPEN LAKE BUOY OBSERVATIONS

STATION/POSITION TEMP    WIND        PRES    VSBY  WAVE
                 AIR SEA DIR/SP/G                  HT/PER
                 (F)     (DEG/KT/KT) (MB)    (MI)  (FT/S)
CALUMET HARBOR    80     360/  4/  8   N/A
MICHIGAN CITY     76     280/ 10/ 12   N/A
BURNS HARBOR      76     330/  7/  9 1015.9R
SAINT JOSEPH      79     210/  4/  5 1016.3R
4 MI NW BRIDGMAN  75 75  320/  6/  8   N/A           1/ 3
MICHIGAN CITY     76 75  320/ 10/ 12   N/A           1
MICHIGAN CITY CG  78 72  330/  8       N/A       6   1

$$
&&



USA.gov is the U.S. government's official web portal to all federal, state and local government web resources and services.